Temp
83 85 86 86 87 87 86 88 85 84 84 84 84 84 83 85 85 84 80 82 82 85
82 82 85 84 85 88 86 87 84 84 82 83 83 83 83 84 83 82 82 82 82 81
84 83 84 85 84 86 87 86 85 84 83 82 81 81 81 83 83 81 83 84 82 81
85 85 85 85 85 85 87 84 84 82 81 80 80 80 79 80 80 78 80 81 80 81
86 86 88 86 86 86 84 85 82 77 77 77 78 78 76 76 78 77 76 77 77 78
87 87 86 87 87 86 84 76 73 74 72 70 72 73 74 75 76 76 75 76 76 76
86 86 88 86 86 82 76 72 71 71 72 72 74 74 75 76 76 76 77 76 76 77
84 82 84 82 79 78 76 74 74 73 73 75 74 75 74 76 76 75 74 72 75 76
83 81 79 77 76 75 73 75 75 73 73 73 74 70 70 72 74 74 71 73 76 77
80 78 78 78 77 75 76 77 77 77 75 75 75 65 66 69 73 72 72 72 71 74
79 78 78 78 78 77 78 77 77 77 77 73 70 64 65 67 73 72 72 72 73 72
79 79 79 78 77 78 78 77 76 76 75 73 70 61 62 70 77 76 75 75 72 72
79 79 79 79 78 78 78 77 79 76 74 65 70 60 61 68 79 76 74 73 72 62
79 79 79 78 78 78 77 77 76 75 73 70 67 67 59 61 74 76 77 75 71 73
MSLP
1014.42 1014.48 1014.62 1014.80 1014.82 1014.86 1015.00 1015.06 1015.36 1015.47 1015.58 1015.60 1015.62 1015.69 1015.76 1015.93 1016.04 1016.15 1016.22 1016.12 1016.24 1016.17
1013.66 1014.11 1014.07 1014.41 1014.58 1014.55 1014.70 1014.89 1015.16 1015.24 1015.42 1015.44 1015.45 1015.49 1015.80 1015.92 1016.03 1016.10 1015.90 1015.72 1015.69 1015.82
1012.70 1013.19 1013.61 1013.94 1014.01 1014.12 1014.37 1014.84 1015.09 1015.31 1015.39 1015.44 1015.43 1015.43 1015.51 1015.38 1015.42 1015.39 1015.16 1015.07 1015.19 1015.31
1011.93 1012.40 1012.93 1013.20 1013.56 1013.93 1014.24 1014.79 1015.06 1015.42 1015.68 1015.82 1015.76 1015.57 1015.33 1015.01 1014.82 1014.82 1014.83 1014.69 1014.79 1014.83
1011.25 1011.77 1012.12 1012.74 1013.26 1013.90 1014.32 1014.69 1015.37 1016.16 1016.40 1016.30 1015.88 1015.23 1014.74 1014.47 1014.71 1014.98 1015.26 1015.40 1015.33 1015.41
1011.03 1011.60 1012.10 1012.52 1012.92 1013.41 1014.14 1015.41 1015.92 1016.73 1016.15 1015.12 1014.38 1013.95 1014.29 1014.53 1014.97 1015.32 1015.28 1015.38 1015.20 1015.25
1011.32 1011.42 1011.44 1012.05 1012.62 1013.59 1014.04 1014.02 1013.97 1013.39 1014.23 1014.35 1014.53 1014.17 1014.74 1014.85 1015.02 1014.98 1014.97 1015.01 1014.91 1014.79
1011.29 1011.45 1011.67 1012.34 1013.03 1013.38 1013.72 1013.90 1013.93 1013.81 1014.17 1014.74 1014.78 1014.61 1014.72 1014.60 1014.35 1014.36 1014.63 1014.63 1014.70 1014.62
1011.17 1011.54 1012.05 1012.72 1013.41 1013.19 1013.39 1013.89 1014.23 1014.47 1014.71 1014.87 1014.98 1014.84 1014.76 1014.63 1014.20 1014.51 1014.71 1014.54 1014.47 1014.26
1011.75 1011.98 1012.49 1012.96 1013.22 1013.46 1013.83 1014.07 1014.20 1014.29 1014.50 1014.64 1014.63 1014.62 1014.45 1014.35 1014.35 1014.59 1014.40 1014.32 1014.24 1013.98
1012.24 1012.41 1012.80 1013.12 1013.50 1013.88 1014.07 1014.27 1014.42 1014.49 1014.60 1014.97 1015.20 1014.98 1014.67 1014.43 1014.37 1014.40 1014.35 1014.38 1014.35 1014.23
1012.62 1012.72 1013.11 1013.48 1013.76 1013.99 1014.16 1014.47 1014.66 1014.81 1015.04 1015.28 1015.50 1015.52 1015.18 1014.71 1014.38 1014.15 1014.11 1014.13 1014.45 1014.45
1012.90 1013.00 1013.36 1013.66 1013.91 1014.22 1014.39 1014.56 1014.74 1015.06 1015.42 1015.70 1015.64 1015.68 1015.46 1015.05 1014.38 1014.16 1014.35 1014.50 1014.67 1014.92
1013.21 1013.48 1013.68 1013.84 1014.10 1014.31 1014.50 1014.75 1014.97 1015.17 1015.49 1015.75 1015.84 1015.87 1015.81 1015.55 1015.13 1014.73 1014.41 1014.57 1014.84 1014.89
Wind_Speed
10 8 8 8 6 5 4 5 3 4 5 5 6 6 6 7 7 8 7 11 9 7
10 11 9 10 8 6 6 4 4 5 5 5 5 5 5 6 7 7 8 8 8 7
11 11 11 9 10 9 7 5 4 4 4 4 5 5 6 7 8 8 7 7 8 7
11 11 10 9 9 9 7 4 4 4 2 1 3 5 6 8 9 9 9 8 8 8
12 10 9 8 7 4 4 2 4 6 5 3 4 8 9 9 4 3 4 7 6 8
7 6 4 5 4 4 7 13 10 6 6 11 13 12 9 7 5 4 4 6 5 6
3 4 6 5 6 11 13 15 12 15 14 10 9 6 8 9 9 5 5 6 9 9
4 4 6 8 10 12 12 7 4 6 8 10 7 7 10 10 10 7 5 5 6 6
6 7 10 10 10 8 4 2 3 6 7 7 7 7 7 8 7 6 3 5 5 7
9 11 11 11 11 10 6 5 4 4 1 3 5 13 9 7 2 3 5 4 3 2
12 12 11 11 10 9 8 7 4 4 4 5 6 12 11 8 4 3 3 4 5 5
10 11 11 11 10 8 8 8 7 6 6 6 5 10 10 7 5 5 5 5 6 7
9 10 10 9 8 7 8 7 6 7 6 6 5 10 10 7 4 6 4 4 5 10
8 8 7 7 7 7 7 6 6 6 5 5 4 6 9 10 6 5 5 5 4 5
Wind_Direction
215 218 224 230 240 242 238 243 214 222 238 270 244 244 237 238 243 246 241 244 243 259
208 221 227 225 225 234 233 237 233 218 212 231 242 244 256 263 265 266 270 263 257 255
217 216 224 228 230 228 236 226 227 223 228 222 208 215 226 237 236 241 246 246 251 252
217 217 217 222 236 238 242 226 229 199 181 175 225 234 233 237 239 238 253 248 251 258
223 214 218 221 239 244 235 173 102 96 96 99 229 235 226 233 243 252 330 340 330 318
228 228 228 228 213 177 95 80 99 88 177 196 216 219 230 242 279 294 306 289 267 251
264 204 194 178 142 114 133 147 159 176 209 225 250 286 297 289 284 289 287 282 276 262
194 155 146 119 126 144 154 175 245 189 206 239 285 293 281 284 303 314 293 284 280 244
115 126 113 128 140 125 121 145 146 183 209 244 266 285 291 294 311 322 326 300 278 260
119 116 116 120 118 118 139 120 88 80 68 328 347 350 332 355 345 343 330 327 331 320
114 116 118 118 119 120 112 102 93 85 67 51 28 1 11 14 16 342 10 24 11 356
112 114 117 115 110 108 108 107 101 89 78 64 46 15 14 351 37 39 45 54 43 15
109 109 109 113 113 116 115 105 97 84 76 54 41 26 12 0 32 55 57 65 65 49
99 101 108 102 97 115 114 109 95 93 88 75 37 50 30 17 53 23 48 42 35 41